User: anonymous   Login
Location: Unspecified
(0.0000°N, 0.0000°E)
Time: 13:14:29
(UTC+00:00)
Language:

Sedsat-1 - Orbit

View from above orbital plane
View from above orbital plane
View from above satellite
View from above satellite

Ground track
Ground track

The orbit data is extracted from the following two-line orbital elements,

1 25509U 98061B   21015.88548564  .00000075  00000-0  22992-5 0  9993
2 25509  31.4314 200.5890 0346509 324.9475  32.8791 14.30444221162132
Epoch (UTC): 15 January 2021 21:15:05
Eccentricity: 0.0346509
inclination: 31.4314°
perigee height: 542 km
apogee height: 1038 km
right ascension of ascending node: 200.5890°
argument of perigee: 324.9475°
revolutions per day: 14.30444221
mean anomaly at epoch: 32.8791°
orbit number at epoch: 16213

The dashed part of the orbit path shows where the satellite is in the earth's shadow,  

DLR